Location: Be Tobo
(6.6442°N, 10.6239°W)
Time: 03:42:01
(UTC+00:00)

Cosmos 923 Rocket - Pass Details

Date: 18 September 2020
Orbit: 759 x 784 km, 74.0° (Epoch: 23 October)

Event Time Altitude Azimuth Distance (km) Brightness Sun altitude
Rises 19:49:06 0° 349° (N) 3,205 7.4 -17.9°
Reaches altitude 10° 19:51:27 10° 350° (N) 2,280 6.6 -18.5°
Maximum altitude 19:56:38 82° 77° (ENE) 768 3.8 -19.7°
Drops below altitude 10° 20:01:49 10° 165° (SSE) 2,286 6.3 -21.0°
Enters shadow 20:03:02 - 166° (SSE) 2,762 6.7 -21.3°
